FW5198 Weather Reports


Display with metric or nautical units.
time (UTC)temp
F
wind
direction
speed
MPH
gust
MPH
rain 1hr
in
rain 24hr
in
rain mn
in
humidity
%
barometer
mb
20260902143045 87 35 1.0 4.0 0.00 0.00 0.00 71 1020.6
20260902141549 85 0 0.0 3.0 0.00 0.00 0.00 73 1020.5
20260902140045 83 30 2.0 3.0 0.00 0.00 0.00 76 1020.6
20260902134546 82 49 0.0 2.0 0.00 0.00 0.00 78 1020.5
20260902133059 80 0 0.0 1.0 0.00 0.00 0.00 81 1020.4
20260902131547 78 0 0.0 1.0 0.00 0.00 0.00 85 1020.4
20260902130045 75 0 0.0 0.0 0.00 0.00 0.00 92 1020.4
20260902124553 74 0 0.0 0.0 0.00 0.00 0.00 95 1020.3
20260902123048 73 0 0.0 0.0 0.00 0.00 0.00 96 1020.2
20260902121546 72 0 0.0 0.0 0.00 0.00 0.00 96 1020.2
20260902120052 71 0 0.0 0.0 0.00 0.00 0.00 97 1020.0
20260902114547 71 0 0.0 0.0 0.00 0.00 0.00 97 1019.9
20260902113046 71 0 0.0 0.0 0.00 0.00 0.00 97 1019.8
20260902111557 71 0 0.0 0.0 0.00 0.00 0.00 97 1019.6
20260902110047 71 0 0.0 0.0 0.00 0.00 0.00 97 1019.4
20260902104548 71 0 0.0 0.0 0.00 0.00 0.00 97 1019.4
20260902103047 71 0 0.0 0.0 0.00 0.00 0.00 97 1019.2
20260902101555 71 0 0.0 0.0 0.00 0.00 0.00 97 1019.2
20260902100045 71 0 0.0 0.0 0.00 0.00 0.00 97 1018.9
20260902094546 71 0 0.0 0.0 0.00 0.00 0.00 97 1018.8
20260902093116 71 0 0.0 0.0 0.00 0.00 0.00 96 1018.7
20260902091553 71 0 0.0 0.0 0.00 0.00 0.00 96 1018.6
20260902090054 71 0 0.0 0.0 0.00 0.00 0.00 96 1018.5
20260902084554 72 0 0.0 0.0 0.00 0.00 0.00 96 1018.6
20260902083054 72 0 0.0 0.0 0.00 0.00 0.00 96 1018.5
20260902081608 72 0 0.0 0.0 0.00 0.00 0.00 96 1018.2
20260902080047 72 0 0.0 0.0 0.00 0.00 0.00 95 1018.2
20260902074545 72 0 0.0 0.0 0.00 0.00 0.00 95 1018.1
20260902073051 73 0 0.0 0.0 0.00 0.00 0.00 95 1018.2
20260902071559 73 0 0.0 0.0 0.00 0.00 0.00 95 1018.2
20260902070050 73 0 0.0 0.0 0.00 0.00 0.00 95 1018.2
20260902064548 73 0 0.0 0.0 0.00 0.00 0.00 95 1018.3
20260902063051 73 0 0.0 0.0 0.00 0.00 0.00 95 1018.3
20260902061550 73 0 0.0 0.0 0.00 0.00 0.00 94 1018.4
20260902060109 74 0 0.0 0.0 0.00 0.00 0.00 94 1018.2
20260902054550 74 0 0.0 0.0 0.00 0.00 0.00 94 1018.3
20260902053049 74 0 0.0 0.0 0.00 0.00 0.00 94 1018.3
20260902051546 74 0 0.0 0.0 0.00 0.00 0.00 93 1018.3
20260902050108 74 0 0.0 0.0 0.00 0.00 0.00 93 1018.3
20260902044606 75 0 0.0 0.0 0.00 0.00 0.00 93 1018.3
20260902043046 75 0 0.0 0.0 0.00 0.00 0.00 94 1018.3
20260902041544 75 0 0.0 1.0 0.00 0.00 0.00 93 1018.3
20260902040051 75 50 0.0 1.0 0.00 0.00 0.00 93 1018.4
20260902034556 75 0 0.0 0.0 0.00 0.00 0.00 93 1018.4
20260902033057 76 0 0.0 1.0 0.00 0.00 0.00 92 1018.4
20260902031549 76 0 0.0 1.0 0.00 0.00 0.00 92 1018.5
20260902030054 76 0 0.0 1.0 0.00 0.00 0.00 92 1018.6
20260902024555 77 0 0.0 0.0 0.00 0.00 0.00 91 1018.7
20260902023048 77 0 0.0 1.0 0.00 0.00 0.00 91 1018.7
20260902021552 78 0 0.0 1.0 0.00 0.00 0.00 89 1018.6
20260902020044 78 0 0.0 0.0 0.00 0.00 0.00 90 1018.6
20260902014550 79 48 0.0 1.0 0.00 0.00 0.00 89 1018.4
20260902013047 79 0 0.0 1.0 0.00 0.00 0.00 88 1018.4
20260902011548 80 0 0.0 0.0 0.00 0.00 0.00 87 1018.1
20260902010057 81 48 0.0 1.0 0.00 0.00 0.00 85 1018.1
20260902004559 82 0 0.0 1.0 0.00 0.00 0.00 84 1018.0
20260902003053 83 0 0.0 1.0 0.00 0.00 0.00 82 1018.1
20260902001549 84 0 0.0 1.0 0.00 0.00 0.00 80 1018.0
20260902000047 86 0 0.0 1.0 0.00 0.00 0.00 78 1018.0
20260901234545 88 0 0.0 1.0 0.00 0.00 0.00 74 1018.0
20260901233050 90 46 0.0 1.0 0.00 0.00 0.00 69 1018.1
20260901231548 92 44 0.0 2.0 0.00 0.00 0.00 60 1018.3
20260901230050 94 44 1.0 4.0 0.00 0.00 0.00 55 1018.1
20260901224547 94 67 0.0 4.0 0.00 0.00 0.00 56 1018.2
20260901223050 94 72 1.0 4.0 0.00 0.00 0.00 55 1018.2
20260901221546 94 57 1.0 4.0 0.00 0.00 0.00 53 1018.2
20260901220100 94 39 2.0 6.0 0.00 0.00 0.00 53 1018.2
20260901214552 94 82 1.0 5.0 0.00 0.00 0.00 52 1018.1
20260901213109 94 51 2.0 7.0 0.00 0.00 0.00 53 1018.1
20260901211548 94 82 3.0 7.0 0.00 0.00 0.00 53 1018.1
20260901210044 95 27 2.0 8.0 0.00 0.00 0.00 51 1018.2
20260901204551 95 28 3.0 7.0 0.00 0.00 0.00 51 1018.3
20260901203048 95 29 2.0 5.0 0.00 0.00 0.00 50 1018.4
20260901201547 95 32 3.0 7.0 0.00 0.00 0.00 51 1018.5
20260901200049 95 89 2.0 6.0 0.00 0.00 0.00 51 1018.7
20260901194549 96 44 2.0 7.0 0.00 0.00 0.00 50 1018.8
20260901193048 95 29 2.0 8.0 0.00 0.00 0.00 51 1019.0
20260901191550 94 56 3.0 6.0 0.00 0.00 0.00 53 1019.2
20260901190057 94 26 2.0 7.0 0.00 0.00 0.00 53 1019.4
20260901184550 93 360 3.0 7.0 0.00 0.00 0.00 56 1019.4
20260901183054 93 30 3.0 8.0 0.00 0.00 0.00 54 1019.6
20260901181549 94 4 2.0 5.0 0.00 0.00 0.00 56 1019.6
20260901180048 94 330 3.0 7.0 0.00 0.00 0.00 57 1019.8
20260901174544 92 12 2.0 7.0 0.00 0.00 0.00 60 1020.0
20260901173051 92 39 3.0 6.0 0.00 0.00 0.00 59 1020.4
20260901171605 92 26 2.0 8.0 0.00 0.00 0.00 60 1020.6
20260901170059 91 89 2.0 6.0 0.00 0.00 0.00 62 1020.7
20260901164553 91 57 2.0 8.0 0.00 0.00 0.00 62 1020.9
20260901163053 91 105 1.0 7.0 0.00 0.00 0.00 61 1021.0
20260901161549 90 0 1.0 6.0 0.00 0.00 0.00 63 1021.0
20260901160047 90 52 3.0 8.0 0.00 0.00 0.00 65 1021.1
20260901154547 89 34 3.0 7.0 0.00 0.00 0.00 68 1021.1
20260901153054 88 45 2.0 5.0 0.00 0.00 0.00 70 1021.1
20260901151543 88 36 1.0 6.0 0.00 0.00 0.00 70 1021.1
20260901150053 87 45 3.0 6.0 0.00 0.00 0.00 71 1021.1
20260901144548 86 56 2.0 5.0 0.00 0.00 0.00 73 1021.1